SCP
0 0 -0 -0 -0 -0 -0 0 0 0 0 0 0 0 0 0 0 0 0 0 0 0 0 0 0 0 0 0 0 0 0 0 0 0 0 0 0 0 0 0 0 0 0 0 1
0 0 0 0 -0 -0 -0 0 0 0 0 0 0 0 0 0 0 0 0 0 0 0 0 0 0 0 0 0 0 0 0 0 0 0 0 0 0 0 0 0 0 0 0 1 1
0 0 0 0 0 0 0 0 0 0 0 0 0 0 0 0 0 0 0 0 0 0 0 0 0 0 0 0 0 0 0 0 0 0 0 0 0 0 0 0 0 0 0 0 2
-0 -0 0 0 0 0 0 0 0 0 0 0 0 0 0 0 0 0 0 0 0 0 0 0 0 0 0 0 0 0 0 0 0 0 0 0 0 0 0 0 0 0 0 0 0
-0 -0 0 0 0 0 0 0 0 0 0 0 0 0 0 0 0 0 0 0 0 0 0 0 0 0 0 0 0 0 0 0 0 0 0 0 0 0 0 0 0 0 0 0 0
-0 0 0 0 0 0 0 0 0 0 0 0 0 0 0 0 0 0 0 0 0 0 0 0 0 0 0 0 0 0 0 0 0 0 0 0 0 0 0 0 0 0 0 0 0
0 0 0 0 0 0 0 0 0 0 0 0 0 0 0 0 0 0 0 0 0 0 0 0 0 0 0 0 0 0 0 0 0 0 0 0 0 0 0 0 0 0 0 0 0
0 0 0 0 0 0 0 0 0 0 0 0 0 0 0 0 0 0 0 0 0 0 0 0 0 0 0 0 0 0 0 -0 0 0 0 0 0 0 0 0 0 0 0 0 0
0 0 0 0 0 0 0 0 0 0 0 0 0 0 0 0 0 0 0 0 0 0 0 0 0 0 0 0 0 0 0 0 0 0 0 0 0 0 0 0 0 0 0 0 0
0 0 0 0 0 0 0 0 0 0 0 0 0 0 0 0 0 0 0 0 0 0 0 0 0 0 0 0 0 0 0 -0 0 0 0 0 0 -0 -0 0 0 0 0 0 0
0 0 0 0 0 0 0 0 0 0 0 0 0 0 0 0 0 0 0 0 0 0 0 0 0 0 0 0 0 0 -0 0 0 0 0 -0 0 -0 -0 0 0 0 -0 0 -0
0 0 0 0 0 0 0 0 0 0 0 0 0 0 0 0 0 0 0 0 0 0 0 0 0 0 0 0 0 0 0 -0 -0 0 0 0 -0 -0 0 0 0 0 -0 -0 -0
0 0 0 0 0 0 0 0 0 0 0 0 0 0 0 0 0 0 0 0 0 0 0 0 0 0 0 0 0 -0 -0 -0 -0 0 0 0 0 -0 -0 -0 0 0 0 0 0
0 0 0 0 0 0 0 0 0 0 0 0 0 0 0 0 0 0 0 0 0 0 0 0 0 0 0 0 0 -0 0 0 0 0 0 0 0 0 0 0 0 0 0 0 0
0 0 0 0 0 0 0 0 0 0 0 0 0 0 0 0 0 0 0 0 0 0 0 0 0 0 0 0 0 -0 0 0 0 0 0 0 0 0 0 0 0 0 0 0 0
0 0 0 0 0 0 0 0 0 0 0 0 0 0 0 0 0 0 0 0 0 0 0 0 0 0 0 0 0 0 0 0 0 0 0 0 0 0 0 0 0 0 0 0 0
0 0 0 0 0 0 -0 0 0 0 0 0 0 0 0 0 0 0 0 0 0 0 0 0 0 0 0 0 0 0 0 0 0 0 0 0 0 0 0 0 0 0 0 0 0
0 0 0 0 0 0 0 0 0 0 0 0 0 0 0 0 0 0 0 0 0 0 0 0 0 0 0 0 0 0 0 0 0 0 0 0 0 0 0 0 0 0 0 0 0
0 0 0 0 0 0 0 0 0 0 0 0 0 0 0 0 0 0 0 0 0 0 0 0 0 0 0 0 0 0 0 0 0 0 0 0 0 0 0 0 0 0 0 0 0
0 0 0 0 0 0 0 0 0 0 0 0 0 0 0 0 0 0 0 0 0 0 0 0 0 0 0 0 0 0 0 0 0 0 0 0 0 0 0 0 0 0 0 0 0
0 0 0 0 0 0 0 0 0 0 0 0 0 -0 0 0 0 0 0 0 0 0 0 0 0 0 0 0 0 0 0 0 0 0 0 0 0 0 0 0 0 0 0 0 0
-0 0 0 0 0 0 0 0 0 0 0 0 0 -0 0 0 0 0 0 0 0 0 0 0 0 0 0 0 0 0 0 0 0 0 0 0 0 0 0 0 0 0 0 0 0
0 0 0 0 0 0 0 -0 0 0 0 0 0 0 0 0 0 0 0 0 0 0 0 0 0 0 0 0 0 0 0 0 0 0 0 0 0 0 0 0 0 0 0 0 0
0 -0 0 0 0 0 0 -0 -0 0 0 0 0 0 0 0 0 0 0 0 0 0 0 0 0 0 0 0 0 0 0 0 0 0 0 0 0 0 0 0 0 0 0 0 0
0 0 0 0 0 0 0 0 0 0 0 0 0 0 0 0 0 0 0 0 0 0 0 0 0 -0 0 0 0 0 0 0 0 0 0 0 0 0 0 0 0 0 0 0 0
0 0 0 0 0 0 0 0 0 0 0 0 0 0 0 0 0 0 0 0 0 0 0 0 0 0 0 0 0 0 0 0 0 0 0 0 0 0 0 0 0 0 0 0 0
0 0 0 0 0 0 0 0 0 0 -0 0 0 0 0 0 0 0 0 0 0 0 0 0 0 0 0 0 0 0 0 0 0 0 0 0 0 0 0 0 0 0 0 0 0
Wind_Speed_500mb
33 34 34 36 36 35 36 37 35 35 33 33 35 35 31 30 31 37 44 26 15 31 28 15 25 33 27 19 14 14 13 21 24 26 19 15 14 7 14 12 15 8 5 9 14
34 35 36 37 38 40 39 38 39 38 37 35 35 35 36 32 34 48 29 26 23 20 24 23 29 37 16 14 12 15 12 20 9 23 16 35 36 28 16 22 11 9 22 5 22
39 41 43 42 42 44 44 43 41 40 40 41 37 36 34 33 32 8 10 27 27 18 20 22 24 27 16 14 15 9 14 9 12 24 30 40 19 11 29 34 22 16 8 16 4
44 45 46 47 47 47 45 44 45 46 44 42 40 34 33 24 9 5 12 22 23 23 27 26 33 21 15 17 17 10 18 27 12 23 17 29 29 33 37 46 37 22 16 2 5
47 47 46 46 46 45 46 46 48 50 50 45 38 33 28 16 35 18 14 15 20 26 33 35 35 16 15 15 15 20 23 20 33 34 38 37 40 40 44 47 52 37 33 26 12
47 45 46 46 45 46 45 47 51 53 51 40 32 30 19 14 19 22 23 23 23 29 38 40 23 19 12 12 20 17 29 33 26 37 28 36 51 46 35 38 64 54 48 44 31
47 45 45 46 47 45 46 50 53 50 39 30 26 23 26 44 19 17 18 14 13 29 35 41 14 17 12 11 11 7 16 20 28 35 26 34 40 44 33 44 55 32 40 51 46
47 47 46 47 49 50 53 51 47 33 23 20 19 18 24 15 29 34 19 14 20 28 18 32 26 15 3 5 3 6 5 12 11 26 27 34 36 39 34 48 50 54 49 47 50
49 48 48 48 49 52 53 49 33 22 11 14 16 18 22 18 33 32 39 18 27 33 19 26 24 8 5 1 7 5 11 15 21 27 13 30 30 43 53 46 45 43 39 35 41
52 51 49 50 50 53 54 39 15 10 3 9 10 11 23 10 11 31 40 24 29 39 17 13 9 10 7 9 10 9 10 12 20 3 32 29 40 37 43 50 42 36 47 46 52
53 53 52 51 50 51 51 18 4 8 19 25 13 15 1 10 7 22 49 34 32 20 14 13 10 20 25 29 22 17 23 28 33 16 17 40 43 41 37 40 42 47 52 62 74
53 52 54 50 50 52 37 11 10 14 23 41 53 55 45 14 1 20 48 29 19 17 17 10 22 28 21 18 27 30 31 36 30 8 17 14 36 36 19 27 41 44 61 55 59
58 54 57 57 51 37 19 16 14 19 13 19 47 40 43 48 25 27 52 31 27 24 28 18 4 33 23 22 23 31 28 28 23 15 8 6 10 16 14 29 26 28 53 54 59
63 62 59 66 39 21 37 14 19 12 10 11 15 18 32 29 18 41 53 43 12 34 23 21 25 21 21 23 25 30 28 35 29 10 13 5 6 5 6 19 25 27 31 53 64
65 65 59 57 61 52 24 16 18 4 13 9 9 11 28 40 24 34 58 40 33 17 16 18 20 27 26 23 22 16 14 31 17 13 8 7 7 6 4 11 16 22 29 27 30
65 65 68 62 60 46 26 22 9 10 18 8 17 16 23 22 13 23 41 40 27 22 15 27 7 10 10 9 19 9 7 8 6 5 15 2 6 5 7 6 4 7 12 21 28
73 69 65 64 57 32 22 21 9 14 15 9 11 19 36 22 19 23 32 34 28 30 29 18 26 17 17 19 11 17 14 12 13 12 15 1 8 1 6 3 7 11 15 24 32
77 73 70 63 37 36 19 7 20 12 28 24 6 16 25 21 30 21 31 32 30 24 16 22 18 26 18 26 14 18 23 13 21 15 11 6 10 6 3 11 14 14 25 32 34
78 76 64 28 19 40 39 16 22 24 16 18 6 11 20 23 17 32 27 37 34 34 18 17 19 7 10 8 15 11 12 3 9 4 6 5 4 10 3 10 18 28 30 30 28
75 65 26 36 21 40 19 34 31 30 10 6 12 15 24 23 21 35 29 28 31 38 31 10 7 7 10 10 10 8 20 8 3 11 14 8 6 10 10 18 26 27 33 28 20
54 32 27 22 22 23 20 21 45 32 23 16 17 8 15 9 19 22 30 5 36 30 33 27 6 5 5 8 14 10 9 8 8 1 9 12 7 3 9 24 29 25 24 24 24
24 12 2 20 5 10 21 18 22 18 27 19 11 19 23 26 8 9 6 1 4 23 26 7 5 11 1 4 3 3 5 9 11 12 3 2 7 11 10 24 29 23 21 22 24
35 20 13 10 7 9 23 28 17 22 30 25 19 3 13 13 8 10 6 10 3 8 18 11 3 1 6 6 2 9 7 9 10 4 16 15 8 6 12 15 14 28 25 27 27
15 10 13 8 12 20 18 16 24 19 19 19 6 5 10 11 3 15 15 5 8 10 25 23 4 10 14 5 4 9 14 15 16 10 15 18 15 11 10 14 16 20 25 25 21
6 7 10 11 13 26 26 15 7 8 4 5 1 10 21 10 5 11 10 14 6 6 11 12 19 28 19 23 7 5 13 13 15 14 14 12 15 14 13 17 23 23 23 23 17
9 7 12 24 25 23 13 8 11 2 7 12 5 11 22 12 12 22 13 5 6 7 7 1 9 8 7 4 2 7 12 16 20 18 17 17 24 12 6 14 27 28 25 21 10
16 26 26 14 14 13 9 17 20 4 7 18 9 5 23 16 3 11 26 18 13 7 6 5 11 6 7 3 1 16 26 29 25 22 24 28 27 13 12 18 24 22 15 12 9
Wind_Direction_500mb
345 343 339 334 332 331 329 330 326 322 318 316 316 315 314 299 294 288 280 273 239 219 223 217 187 189 180 169 158 170 223 233 229 217 228 220 242 230 324 260 278 283 85 288 262
338 336 333 331 327 325 324 320 321 318 314 311 308 310 314 301 294 287 283 240 214 190 196 190 174 171 167 167 173 201 223 224 222 230 245 247 249 260 304 303 292 242 66 68 206
331 328 325 324 322 320 318 315 312 312 309 306 303 305 310 304 307 256 257 201 183 179 178 181 176 161 166 167 183 172 239 205 233 235 236 253 249 251 256 268 276 272 161 55 150
326 325 322 320 319 317 314 311 308 307 303 299 296 297 304 298 277 176 118 161 178 177 184 173 163 157 159 180 185 216 222 223 235 232 242 256 268 252 244 254 268 300 266 269 45
325 325 324 324 322 318 315 312 309 304 299 292 285 284 296 270 257 250 231 188 192 200 200 183 167 154 178 177 169 222 241 228 238 244 249 262 264 255 259 259 267 282 268 243 237
328 329 329 328 326 322 317 314 309 305 298 283 271 269 271 253 263 233 232 219 226 215 200 196 190 176 144 175 198 204 242 253 248 240 239 243 255 251 253 273 268 269 261 245 234
331 330 330 328 328 323 320 318 313 306 294 273 253 254 255 252 250 234 196 199 216 205 196 196 197 175 161 161 266 309 289 279 246 242 245 228 250 253 265 262 258 264 260 239 232
330 328 326 326 327 324 323 323 318 313 291 251 231 223 253 245 229 218 185 188 171 179 194 186 184 179 154 352 357 272 259 276 287 210 231 195 252 260 253 253 249 253 270 267 239
329 326 324 321 323 322 322 325 318 312 281 227 199 215 261 240 231 217 213 198 159 161 119 171 183 151 145 217 302 204 259 244 289 213 207 187 239 245 246 239 236 233 235 251 271
328 327 324 321 321 321 323 320 314 304 197 174 213 248 240 214 207 202 187 186 151 162 143 133 142 166 155 184 208 190 229 248 259 225 220 212 237 237 232 205 209 226 232 247 250
331 329 325 321 319 316 318 315 212 250 223 212 204 233 205 169 225 186 181 160 144 156 168 185 189 199 198 203 233 266 285 278 272 262 208 222 228 237 250 202 206 224 223 218 226
330 329 325 320 316 312 302 241 260 277 278 261 248 246 239 210 226 200 182 165 169 175 135 149 225 217 229 220 226 244 264 267 284 262 212 225 230 235 217 238 220 215 218 222 224
329 330 325 323 315 308 278 274 264 305 259 260 232 229 233 224 225 208 182 179 181 193 191 201 174 215 207 224 220 236 241 258 266 317 194 204 240 236 233 231 242 228 220 220 223
328 330 328 322 321 307 308 282 296 251 269 241 211 238 188 183 214 207 194 180 174 201 183 220 228 212 213 238 228 250 227 246 263 265 234 261 257 186 276 222 194 192 202 216 227
324 325 325 322 309 297 296 243 342 176 287 173 170 157 173 174 146 189 193 189 198 167 181 201 189 210 223 223 185 249 240 217 230 224 280 191 234 118 219 204 204 174 188 190 187
320 319 320 316 302 310 278 255 295 219 243 222 146 166 163 201 165 143 175 194 185 187 208 226 190 205 216 237 200 146 146 103 120 167 235 183 256 149 157 167 138 187 162 173 167
319 319 311 302 281 290 309 193 228 236 310 204 180 173 187 180 178 174 176 187 188 195 210 210 235 250 231 250 195 195 194 193 209 208 242 143 203 92 161 223 263 239 163 147 143
320 319 313 304 283 232 204 179 235 249 248 298 297 174 192 165 203 170 181 192 203 194 201 211 221 214 210 218 218 191 207 220 216 213 215 172 205 160 303 284 246 170 148 136 133
327 326 320 322 298 193 171 199 219 216 253 315 317 216 216 203 186 194 197 203 199 196 203 186 219 161 198 174 187 166 205 157 112 79 223 180 225 247 90 66 125 131 135 139 133
331 325 339 331 286 182 210 217 215 212 272 305 296 173 282 204 181 189 184 204 195 196 205 183 177 189 147 143 68 217 139 163 167 206 235 197 243 240 178 146 150 152 149 147 140
338 324 343 331 144 178 218 228 224 219 271 269 268 180 321 251 225 195 192 154 194 186 196 209 223 176 228 204 175 150 167 77 110 118 237 244 219 196 218 173 160 155 153 155 158
337 311 30 122 254 232 240 234 235 250 252 265 256 228 193 281 227 328 203 292 349 147 165 162 164 223 238 354 335 108 154 182 225 200 166 305 221 5 199 166 161 153 146 143 142
325 287 0 226 262 294 303 266 279 288 293 262 235 205 149 190 207 222 274 344 160 117 147 155 19 96 204 194 251 219 146 98 89 95 215 229 231 60 107 127 146 143 142 139 140
321 312 308 306 335 345 327 288 233 283 309 297 252 139 44 141 72 206 187 349 347 89 102 81 90 178 198 357 271 202 193 182 197 227 242 235 238 158 155 154 154 146 148 149 145
257 265 291 312 332 315 293 293 321 297 247 304 219 245 154 33 81 226 151 138 94 127 86 153 176 195 196 200 188 160 178 173 200 223 226 255 219 224 204 193 182 164 167 154 150
270 285 335 292 295 317 303 305 315 325 312 326 316 133 112 119 264 288 132 160 140 99 104 181 120 153 131 109 207 224 204 212 225 234 248 245 252 260 167 162 158 166 173 153 136
298 312 308 276 286 300 300 341 320 323 214 59 348 119 124 127 3 321 79 79 98 108 111 88 131 134 201 51 296 264 244 235 234 231 243 251 258 176 164 178 167 155 147 111 54
Wind_Speed_850mb
33 34 34 36 36 35 36 37 35 35 33 33 35 35 31 30 31 37 44 26 15 31 28 15 25 33 27 19 14 14 13 21 24 26 19 15 14 7 14 12 15 8 5 9 14
34 35 36 37 38 40 39 38 39 38 37 35 35 35 36 32 34 48 29 26 23 20 24 23 29 37 16 14 12 15 12 20 9 23 16 35 36 28 16 22 11 9 22 5 22
39 41 43 42 42 44 44 43 41 40 40 41 37 36 34 33 32 8 10 27 27 18 20 22 24 27 16 14 15 9 14 9 12 24 30 40 19 11 29 34 22 16 8 16 4
44 45 46 47 47 47 45 44 45 46 44 42 40 34 33 24 9 5 12 22 23 23 27 26 33 21 15 17 17 10 18 27 12 23 17 29 29 33 37 46 37 22 16 2 5
47 47 46 46 46 45 46 46 48 50 50 45 38 33 28 16 35 18 14 15 20 26 33 35 35 16 15 15 15 20 23 20 33 34 38 37 40 40 44 47 52 37 33 26 12
47 45 46 46 45 46 45 47 51 53 51 40 32 30 19 14 19 22 23 23 23 29 38 40 23 19 12 12 20 17 29 33 26 37 28 36 51 46 35 38 64 54 48 44 31
47 45 45 46 47 45 46 50 53 50 39 30 26 23 26 44 19 17 18 14 13 29 35 41 14 17 12 11 11 7 16 20 28 35 26 34 40 44 33 44 55 32 40 51 46
47 47 46 47 49 50 53 51 47 33 23 20 19 18 24 15 29 34 19 14 20 28 18 32 26 15 3 5 3 6 5 12 11 26 27 34 36 39 34 48 50 54 49 47 50
49 48 48 48 49 52 53 49 33 22 11 14 16 18 22 18 33 32 39 18 27 33 19 26 24 8 5 1 7 5 11 15 21 27 13 30 30 43 53 46 45 43 39 35 41
52 51 49 50 50 53 54 39 15 10 3 9 10 11 23 10 11 31 40 24 29 39 17 13 9 10 7 9 10 9 10 12 20 3 32 29 40 37 43 50 42 36 47 46 52
53 53 52 51 50 51 51 18 4 8 19 25 13 15 1 10 7 22 49 34 32 20 14 13 10 20 25 29 22 17 23 28 33 16 17 40 43 41 37 40 42 47 52 62 74
53 52 54 50 50 52 37 11 10 14 23 41 53 55 45 14 1 20 48 29 19 17 17 10 22 28 21 18 27 30 31 36 30 8 17 14 36 36 19 27 41 44 61 55 59
58 54 57 57 51 37 19 16 14 19 13 19 47 40 43 48 25 27 52 31 27 24 28 18 4 33 23 22 23 31 28 28 23 15 8 6 10 16 14 29 26 28 53 54 59
63 62 59 66 39 21 37 14 19 12 10 11 15 18 32 29 18 41 53 43 12 34 23 21 25 21 21 23 25 30 28 35 29 10 13 5 6 5 6 19 25 27 31 53 64
65 65 59 57 61 52 24 16 18 4 13 9 9 11 28 40 24 34 58 40 33 17 16 18 20 27 26 23 22 16 14 31 17 13 8 7 7 6 4 11 16 22 29 27 30
65 65 68 62 60 46 26 22 9 10 18 8 17 16 23 22 13 23 41 40 27 22 15 27 7 10 10 9 19 9 7 8 6 5 15 2 6 5 7 6 4 7 12 21 28
73 69 65 64 57 32 22 21 9 14 15 9 11 19 36 22 19 23 32 34 28 30 29 18 26 17 17 19 11 17 14 12 13 12 15 1 8 1 6 3 7 11 15 24 32
77 73 70 63 37 36 19 7 20 12 28 24 6 16 25 21 30 21 31 32 30 24 16 22 18 26 18 26 14 18 23 13 21 15 11 6 10 6 3 11 14 14 25 32 34
78 76 64 28 19 40 39 16 22 24 16 18 6 11 20 23 17 32 27 37 34 34 18 17 19 7 10 8 15 11 12 3 9 4 6 5 4 10 3 10 18 28 30 30 28
75 65 26 36 21 40 19 34 31 30 10 6 12 15 24 23 21 35 29 28 31 38 31 10 7 7 10 10 10 8 20 8 3 11 14 8 6 10 10 18 26 27 33 28 20
54 32 27 22 22 23 20 21 45 32 23 16 17 8 15 9 19 22 30 5 36 30 33 27 6 5 5 8 14 10 9 8 8 1 9 12 7 3 9 24 29 25 24 24 24
24 12 2 20 5 10 21 18 22 18 27 19 11 19 23 26 8 9 6 1 4 23 26 7 5 11 1 4 3 3 5 9 11 12 3 2 7 11 10 24 29 23 21 22 24
35 20 13 10 7 9 23 28 17 22 30 25 19 3 13 13 8 10 6 10 3 8 18 11 3 1 6 6 2 9 7 9 10 4 16 15 8 6 12 15 14 28 25 27 27
15 10 13 8 12 20 18 16 24 19 19 19 6 5 10 11 3 15 15 5 8 10 25 23 4 10 14 5 4 9 14 15 16 10 15 18 15 11 10 14 16 20 25 25 21
6 7 10 11 13 26 26 15 7 8 4 5 1 10 21 10 5 11 10 14 6 6 11 12 19 28 19 23 7 5 13 13 15 14 14 12 15 14 13 17 23 23 23 23 17
9 7 12 24 25 23 13 8 11 2 7 12 5 11 22 12 12 22 13 5 6 7 7 1 9 8 7 4 2 7 12 16 20 18 17 17 24 12 6 14 27 28 25 21 10
16 26 26 14 14 13 9 17 20 4 7 18 9 5 23 16 3 11 26 18 13 7 6 5 11 6 7 3 1 16 26 29 25 22 24 28 27 13 12 18 24 22 15 12 9
Wind_Direction_850mb
345 343 339 334 332 331 329 330 326 322 318 316 316 315 314 299 294 288 280 273 239 219 223 217 187 189 180 169 158 170 223 233 229 217 228 220 242 230 324 260 278 283 85 288 262
338 336 333 331 327 325 324 320 321 318 314 311 308 310 314 301 294 287 283 240 214 190 196 190 174 171 167 167 173 201 223 224 222 230 245 247 249 260 304 303 292 242 66 68 206
331 328 325 324 322 320 318 315 312 312 309 306 303 305 310 304 307 256 257 201 183 179 178 181 176 161 166 167 183 172 239 205 233 235 236 253 249 251 256 268 276 272 161 55 150
326 325 322 320 319 317 314 311 308 307 303 299 296 297 304 298 277 176 118 161 178 177 184 173 163 157 159 180 185 216 222 223 235 232 242 256 268 252 244 254 268 300 266 269 45
325 325 324 324 322 318 315 312 309 304 299 292 285 284 296 270 257 250 231 188 192 200 200 183 167 154 178 177 169 222 241 228 238 244 249 262 264 255 259 259 267 282 268 243 237
328 329 329 328 326 322 317 314 309 305 298 283 271 269 271 253 263 233 232 219 226 215 200 196 190 176 144 175 198 204 242 253 248 240 239 243 255 251 253 273 268 269 261 245 234
331 330 330 328 328 323 320 318 313 306 294 273 253 254 255 252 250 234 196 199 216 205 196 196 197 175 161 161 266 309 289 279 246 242 245 228 250 253 265 262 258 264 260 239 232
330 328 326 326 327 324 323 323 318 313 291 251 231 223 253 245 229 218 185 188 171 179 194 186 184 179 154 352 357 272 259 276 287 210 231 195 252 260 253 253 249 253 270 267 239
329 326 324 321 323 322 322 325 318 312 281 227 199 215 261 240 231 217 213 198 159 161 119 171 183 151 145 217 302 204 259 244 289 213 207 187 239 245 246 239 236 233 235 251 271
328 327 324 321 321 321 323 320 314 304 197 174 213 248 240 214 207 202 187 186 151 162 143 133 142 166 155 184 208 190 229 248 259 225 220 212 237 237 232 205 209 226 232 247 250
331 329 325 321 319 316 318 315 212 250 223 212 204 233 205 169 225 186 181 160 144 156 168 185 189 199 198 203 233 266 285 278 272 262 208 222 228 237 250 202 206 224 223 218 226
330 329 325 320 316 312 302 241 260 277 278 261 248 246 239 210 226 200 182 165 169 175 135 149 225 217 229 220 226 244 264 267 284 262 212 225 230 235 217 238 220 215 218 222 224
329 330 325 323 315 308 278 274 264 305 259 260 232 229 233 224 225 208 182 179 181 193 191 201 174 215 207 224 220 236 241 258 266 317 194 204 240 236 233 231 242 228 220 220 223
328 330 328 322 321 307 308 282 296 251 269 241 211 238 188 183 214 207 194 180 174 201 183 220 228 212 213 238 228 250 227 246 263 265 234 261 257 186 276 222 194 192 202 216 227
324 325 325 322 309 297 296 243 342 176 287 173 170 157 173 174 146 189 193 189 198 167 181 201 189 210 223 223 185 249 240 217 230 224 280 191 234 118 219 204 204 174 188 190 187
320 319 320 316 302 310 278 255 295 219 243 222 146 166 163 201 165 143 175 194 185 187 208 226 190 205 216 237 200 146 146 103 120 167 235 183 256 149 157 167 138 187 162 173 167
319 319 311 302 281 290 309 193 228 236 310 204 180 173 187 180 178 174 176 187 188 195 210 210 235 250 231 250 195 195 194 193 209 208 242 143 203 92 161 223 263 239 163 147 143
320 319 313 304 283 232 204 179 235 249 248 298 297 174 192 165 203 170 181 192 203 194 201 211 221 214 210 218 218 191 207 220 216 213 215 172 205 160 303 284 246 170 148 136 133
327 326 320 322 298 193 171 199 219 216 253 315 317 216 216 203 186 194 197 203 199 196 203 186 219 161 198 174 187 166 205 157 112 79 223 180 225 247 90 66 125 131 135 139 133
331 325 339 331 286 182 210 217 215 212 272 305 296 173 282 204 181 189 184 204 195 196 205 183 177 189 147 143 68 217 139 163 167 206 235 197 243 240 178 146 150 152 149 147 140
338 324 343 331 144 178 218 228 224 219 271 269 268 180 321 251 225 195 192 154 194 186 196 209 223 176 228 204 175 150 167 77 110 118 237 244 219 196 218 173 160 155 153 155 158
337 311 30 122 254 232 240 234 235 250 252 265 256 228 193 281 227 328 203 292 349 147 165 162 164 223 238 354 335 108 154 182 225 200 166 305 221 5 199 166 161 153 146 143 142
325 287 0 226 262 294 303 266 279 288 293 262 235 205 149 190 207 222 274 344 160 117 147 155 19 96 204 194 251 219 146 98 89 95 215 229 231 60 107 127 146 143 142 139 140
321 312 308 306 335 345 327 288 233 283 309 297 252 139 44 141 72 206 187 349 347 89 102 81 90 178 198 357 271 202 193 182 197 227 242 235 238 158 155 154 154 146 148 149 145
257 265 291 312 332 315 293 293 321 297 247 304 219 245 154 33 81 226 151 138 94 127 86 153 176 195 196 200 188 160 178 173 200 223 226 255 219 224 204 193 182 164 167 154 150
270 285 335 292 295 317 303 305 315 325 312 326 316 133 112 119 264 288 132 160 140 99 104 181 120 153 131 109 207 224 204 212 225 234 248 245 252 260 167 162 158 166 173 153 136
298 312 308 276 286 300 300 341 320 323 214 59 348 119 124 127 3 321 79 79 98 108 111 88 131 134 201 51 296 264 244 235 234 231 243 251 258 176 164 178 167 155 147 111 54